Location: Malvern Link
(52.1333°N, 2.3000°W)
Time: 07:28:34
(UTC+00:00)

Cosmos 1634 Rocket - Pass Details

Date: 06 December 2021
Orbit: 959 x 993 km, 82.9° (Epoch: 24 January)

Event Time Altitude Azimuth Distance (km) Brightness Sun altitude
Rises 20:15:35 0° 259° (W) 3,709 7.8 -38.2°
Reaches altitude 10° 20:20:06 10° 289° (WNW) 2,764 7.1 -38.9°
Maximum altitude 20:22:29 12° 311° (NW) 2,608 6.8 -39.2°
Drops below altitude 10° 20:24:54 10° 334° (NNW) 2,766 6.7 -39.6°
Sets 20:29:26 0° 4° (N) 3,714 7.2 -40.3°
